(395421) = 2011 SH185

Discovered at Kitt Peak on 2009-02-04 by Spacewatch.

Orbit

Orbit type: Main Belt

Note: WebGL enabled browser required.

epoch2023-09-13.0
epoch JD2460200.5
perihelion date2023-12-31.23362
perihelion JD2460309.73362
argument of perihelion (°)196.35086
ascending node (°)154.30388
inclination (°)4.73862
eccentricity0.1840491
perihelion distance (AU)2.1174619
Tisserand w.r.t. Jupiter3.4
ΔV w.r.t. Earth (km/sec)9.3
semimajor axis (AU)2.5950850
mean anomaly (°)334.24670
mean daily motion (°/day)0.23576340
aphelion distance (AU)3.073
period (years)4.18
P-vector [x]0.98631054
P-vector [y]-0.14052837
P-vector [z]-0.08627452
Q-vector [x]0.16096107
Q-vector [y]0.93412492
Q-vector [z]0.31859406
absolute magnitude17.18
phase slope0.15
uncertainty0
referenceMPEC 2023-N43
observations used364
oppositions14
arc length (days)6695
first opposition used2005
last opposition used2023
residual rms (arc-secs)0.71
perturbers coarse indicatorM-v
perturbers precise indicator003Ek
first observation date used2005-03-10.0
last observation date used2023-07-09.0
computer nameMPCLINUX
JD of orbit computation2456819.504089
perihelion JD uncertainty (days)9.6992E-05
argument of perihelion uncertainty (°)1.0927E-04
ascending node uncertainty (°)1.0715E-04
inclination uncertainty (°)6.0577E-06
eccentricity uncertainty 8.1593E-08
perihelion distance uncertainty (AU)2.3604E-07
Minimum Orbit Intersection Distances (in AU)
for orbit epoch: 2460000.5, reference: E2023-N43
Mercury1.73808
Venus1.39131
Earth1.11047
Mars0.73056
Jupiter2.34385
Saturn6.24667
Uranus15.3697
Neptune27.4581

Observations

365 total observations over interval: 2005 03 10.33307 – 2023 07 09.540697
These data are available for download (format description).

Date (UT) J2000 RA J2000 Dec Magn Location Ref
2005 03 10.33307 11 33 26.53 +05 03 22.0 20.5 R G96 – Mt. Lemmon Survey MPS 398377
2005 03 10.34016 11 33 26.13 +05 03 25.1 19.8 R G96 – Mt. Lemmon Survey MPS 398377
2005 03 10.34727 11 33 25.81 +05 03 27.6 20.7 R G96 – Mt. Lemmon Survey MPS 398377
2005 03 10.35440 11 33 25.43 +05 03 30.7 19.6 R G96 – Mt. Lemmon Survey MPS 398377
2007 11 08.35186 04 35 54.27 +14 05 42.0 19.8 V G96 – Mt. Lemmon Survey MPS 398377
2007 11 08.36211 04 35 53.77 +14 05 39.8 19.7 V G96 – Mt. Lemmon Survey MPS 398377
2007 11 08.37163 04 35 53.30 +14 05 38.0 19.7 V G96 – Mt. Lemmon Survey MPS 398377
2007 11 08.38124 04 35 52.80 +14 05 36.1 19.7 V G96 – Mt. Lemmon Survey MPS 398377
2009 02 04.46180 10 58 00.00 +06 37 15.8   691 – Steward Observatory, Kitt Peak-Spacewatch MPS 398377
2009 02 04.47990 10 57 59.29 +06 37 22.1   691 – Steward Observatory, Kitt Peak-Spacewatch MPS 398377
2009 02 04.49799 10 57 58.60 +06 37 27.1   691 – Steward Observatory, Kitt Peak-Spacewatch MPS 398377
2009 02 22.06549 10 44 42.03 +08 21 50.0 21.4 R 493 – Calar Alto MPS 398377
2009 02 22.07967 10 44 41.28 +08 21 55.7 21.5 R 493 – Calar Alto MPS 398377
2009 02 22.09392 10 44 40.50 +08 22 00.7 20.4 R 493 – Calar Alto MPS 398377
2009 02 22.29256 10 44 30.66 +08 23 17.7 21.9 V G96 – Mt. Lemmon Survey MPS 398377
2009 02 22.29668 10 44 30.44 +08 23 19.4 21.4 V G96 – Mt. Lemmon Survey MPS 398377
2009 02 22.30086 10 44 30.22 +08 23 21.3 21.1 V G96 – Mt. Lemmon Survey MPS 398377
2009 02 22.30498 10 44 30.04 +08 23 22.2 21.2 V G96 – Mt. Lemmon Survey MPS 398377
2010 05 11.36139 15 55 00.04 -12 45 11.7 20.7 V 691 – Steward Observatory, Kitt Peak-Spacewatch MPS 398377
2010 05 11.37752 15 54 59.18 -12 45 08.5 19.8 V G96 – Mt. Lemmon Survey MPS 398377
2010 05 11.37913 15 54 59.09 -12 45 07.5 20.8 V 691 – Steward Observatory, Kitt Peak-Spacewatch MPS 398377
2010 05 11.38456 15 54 58.82 -12 45 06.4 20.1 V G96 – Mt. Lemmon Survey MPS 398377
2010 05 11.39165 15 54 58.42 -12 45 05.6 20.4 V G96 – Mt. Lemmon Survey MPS 398377
2010 05 11.39687 15 54 58.12 -12 45 03.4 20.4 V 691 – Steward Observatory, Kitt Peak-Spacewatch MPS 398377
2010 05 11.39880 15 54 58.03 -12 45 03.5 20.5 V G96 – Mt. Lemmon Survey MPS 398377
2011 09 26.42188 02 51 14.82 +09 59 55.7 20.6 V 691 – Steward Observatory, Kitt Peak-Spacewatch MPS 393019
2011 09 26.43963 02 51 14.57 +09 59 50.9 20.5 V 691 – Steward Observatory, Kitt Peak-Spacewatch MPS 393019
2011 09 26.45738 02 51 14.32 +09 59 45.9 20.2 V 691 – Steward Observatory, Kitt Peak-Spacewatch MPS 393019
2011 09 30.42748 02 50 10.32 +09 40 18.1 20.1 V 691 – Steward Observatory, Kitt Peak-Spacewatch MPS 393019
2011 09 30.44525 02 50 09.90 +09 40 12.9 20.0 V 691 – Steward Observatory, Kitt Peak-Spacewatch MPS 393019
2011 09 30.46303 02 50 09.53 +09 40 07.1 19.9 V 691 – Steward Observatory, Kitt Peak-Spacewatch MPS 393019
2011 10 23.35523 02 35 48.87 +07 26 09.1 19.4 V G96 – Mt. Lemmon Survey MPS 396493
2011 10 23.36564 02 35 48.33 +07 26 05.4 19.3 V G96 – Mt. Lemmon Survey MPS 396493
2011 10 23.37605 02 35 47.76 +07 26 01.7 19.3 V G96 – Mt. Lemmon Survey MPS 396493
2011 10 23.38642 02 35 47.22 +07 25 57.7 19.2 V G96 – Mt. Lemmon Survey MPS 396493
2011 10 25.73387 02 33 46.98 +07 12 00.2 20.0 R D29 – Purple Mountain Observatory, XuYi Station MPS 396493
2011 10 25.74985 02 33 46.07 +07 11 55.0 20.1 R D29 – Purple Mountain Observatory, XuYi Station MPS 396493
2011 10 25.76583 02 33 45.25 +07 11 48.3 19.7 R D29 – Purple Mountain Observatory, XuYi Station MPS 396493
2011 10 30.29151 02 29 47.94 +06 46 00.2 19.7 V 703 – Catalina Sky Survey MPS 398377
2011 10 30.29948 02 29 47.54 +06 45 57.5 19.3 V 703 – Catalina Sky Survey MPS 398377
2011 10 30.30756 02 29 47.14 +06 45 55.3 19.2 V 703 – Catalina Sky Survey MPS 398377
2011 10 30.31576 02 29 46.68 +06 45 52.3 19.6 V 703 – Catalina Sky Survey MPS 398377
2011 10 31.40243 02 28 49.15 +06 39 57.3 19.5 V G96 – Mt. Lemmon Survey MPS 398377
2011 10 31.40932 02 28 48.75 +06 39 55.0 19.6 V G96 – Mt. Lemmon Survey MPS 398377
2011 10 31.41625 02 28 48.39 +06 39 52.6 19.4 V G96 – Mt. Lemmon Survey MPS 398377
2011 10 31.42318 02 28 48.00 +06 39 50.4 19.4 V G96 – Mt. Lemmon Survey MPS 398377
2013 02 14.29344 09 46 35.68 +12 10 47.7 20.8 V G96 – Mt. Lemmon Survey MPS 453831
2013 02 14.30031 09 46 35.29 +12 10 50.1 20.3 V G96 – Mt. Lemmon Survey MPS 453831
2013 02 14.30718 09 46 34.93 +12 10 52.6 20.7 V G96 – Mt. Lemmon Survey MPS 453831
2013 02 14.31406 09 46 34.53 +12 10 55.4 21.6 V G96 – Mt. Lemmon Survey MPS 453831
2014 04 23.32546 14 47 48.85 -09 16 47.5 21.4 V W84 – Cerro Tololo-DECam MPS 790384
2014 04 23.32842 14 47 48.68 -09 16 46.6 22.3 V W84 – Cerro Tololo-DECam MPS 511167
2014 04 23.32865 14 47 48.68 -09 16 46.6   W84 – Cerro Tololo-DECam MPS 790384
2014 04 23.33160 14 47 48.52 -09 16 45.6 22.3 V W84 – Cerro Tololo-DECam MPS 511167
2014 04 23.33183 14 47 48.52 -09 16 45.6   W84 – Cerro Tololo-DECam MPS 790384
2014 04 23.33476 14 47 48.35 -09 16 44.6 22.3 V W84 – Cerro Tololo-DECam MPS 511167
2014 04 23.33500 14 47 48.36 -09 16 44.6   W84 – Cerro Tololo-DECam MPS 790384
2014 04 23.33792 14 47 48.19 -09 16 43.5 22.3 V W84 – Cerro Tololo-DECam MPS 511167
2014 04 23.33815 14 47 48.19 -09 16 43.5   W84 – Cerro Tololo-DECam MPS 790384
2014 04 24.34676 14 46 57.38 -09 11 29.9 21.0   W84 – Cerro Tololo-DECam MPS 790384
2014 04 24.34991 14 46 57.21 -09 11 28.9   W84 – Cerro Tololo-DECam MPS 790384
2014 04 24.35314 14 46 57.04 -09 11 27.9   W84 – Cerro Tololo-DECam MPS 790384
2014 04 24.35632 14 46 56.88 -09 11 26.9   W84 – Cerro Tololo-DECam MPS 790384
2014 04 24.35945 14 46 56.72 -09 11 25.9   W84 – Cerro Tololo-DECam MPS 790384
2014 04 25.36368 14 46 05.57 -09 06 14.1 20.5 V W84 – Cerro Tololo-DECam MPS 790384
2014 04 25.36692 14 46 05.40 -09 06 13.0   W84 – Cerro Tololo-DECam MPS 790384
2014 04 25.37016 14 46 05.23 -09 06 11.9   W84 – Cerro Tololo-DECam MPS 790384
2014 04 25.37338 14 46 05.06 -09 06 10.8   W84 – Cerro Tololo-DECam MPS 790384
2014 04 26.31381 14 45 16.79 -09 01 19.6 21.0 V W84 – Cerro Tololo-DECam MPS 790384
2014 04 26.31696 14 45 16.61 -09 01 18.7   W84 – Cerro Tololo-DECam MPS 790384
2014 04 26.32011 14 45 16.44 -09 01 17.6   W84 – Cerro Tololo-DECam MPS 790384
2014 04 26.32325 14 45 16.28 -09 01 16.6   W84 – Cerro Tololo-DECam MPS 790384
2014 04 26.32640 14 45 16.11 -09 01 15.7   W84 – Cerro Tololo-DECam MPS 790384
2014 05 04.28958 14 38 16.16 -08 21 11.2 20.2 V G96 – Mt. Lemmon Survey MPS 513889
2014 05 04.29418 14 38 15.91 -08 21 09.1 20.5 V G96 – Mt. Lemmon Survey MPS 513889
2014 05 04.29881 14 38 15.69 -08 21 08.4 20.0 V G96 – Mt. Lemmon Survey MPS 513889
2014 05 04.30338 14 38 15.41 -08 21 06.6 20.4 V G96 – Mt. Lemmon Survey MPS 513889
2014 05 09.36390 14 33 47.666 -07 57 17.62 20.8 i F51 – Pan-STARRS 1, Haleakala MPS 513889
2014 05 09.38926 14 33 46.303 -07 57 10.66 20.7 i F51 – Pan-STARRS 1, Haleakala MPS 513889
2014 05 21.38919 14 23 55.905 -07 10 00.35 20.9 w F51 – Pan-STARRS 1, Haleakala MPS 516431
2014 05 21.40122 14 23 55.350 -07 09 57.87 20.9 w F51 – Pan-STARRS 1, Haleakala MPS 516431
2014 05 21.41321 14 23 54.788 -07 09 55.66 20.9 w F51 – Pan-STARRS 1, Haleakala MPS 516431
2014 05 21.42519 14 23 54.222 -07 09 53.27 21.0 w F51 – Pan-STARRS 1, Haleakala MPS 516431
2014 05 28.19646 14 19 13.17 -06 50 56.8 20.1 V G96 – Mt. Lemmon Survey MPS 517887
2014 05 28.20156 14 19 12.95 -06 50 55.9 21.3 V G96 – Mt. Lemmon Survey MPS 517887
2014 05 28.20664 14 19 12.69 -06 50 55.0 20.8 V G96 – Mt. Lemmon Survey MPS 517887
2014 05 28.21175 14 19 12.52 -06 50 54.3 20.9 V G96 – Mt. Lemmon Survey MPS 517887
2015 06 12.45763 23 42 06.85 -01 13 30.3 21.2 V G96 – Mt. Lemmon Survey MPS 611490
2015 06 12.45969 23 42 07.07 -01 13 29.4 21.5 V G96 – Mt. Lemmon Survey MPS 611490
2015 06 12.46175 23 42 07.28 -01 13 28.5 21.6 V G96 – Mt. Lemmon Survey MPS 611490
2015 06 12.46381 23 42 07.40 -01 13 28.1 21.4 V G96 – Mt. Lemmon Survey MPS 611490
2015 07 29.58579 00 33 30.006 +02 26 04.09 20.0 i F51 – Pan-STARRS 1, Haleakala MPS 618489
2015 07 29.59394 00 33 30.288 +02 26 04.70 19.8 i F51 – Pan-STARRS 1, Haleakala MPS 618489
2015 07 29.60209 00 33 30.578 +02 26 05.02 20.0 i F51 – Pan-STARRS 1, Haleakala MPS 618489
